Portada
METAR-TAF:

METAR-TAF

Aeropuertos :

Sanandaj, Irán

latitud: 35-20N, longitud: 047-00E, altitud: 1373 m

Observación

El informe se hizo hace 50 minutos, a las 13:00 UTC
Viento 8 kt del sur
Temperatura 4°C
Humedad 48%
Presión 1020 hPa
Visibilidad 10 km o más
Escasas nubes a una altura de 3000 ft, Cumulus congestus.
Nubes dispersas a una altura de 3500 ft

METAR: OICS 031300Z 19008KT 9999 FEW030TCU SCT035 04/M06 Q1020 A3012

Hora: 17:20 (13:50 UTC)


TAF: falta

Observaciones y pronósticos meteorológicos de más de 4000 aeropuertos (mensajes METAR y TAF).

Los puntos amarillos y rojos representan las estaciones disponibles.

Ponga el ratón en el punto deseado para ver el nombre de la estación.

Haga clic para ver las observaciones y los pronósticos meteorológicos.

Para cambiar el mapa : haga clic en los botones verdes con una cruz de color negro para hacer un zoom, en el botón verde con un guión para alejar o en las flechas verdes para mapas adyacentes.


METAR-TAF: